K3GM Weather Reports


Display with metric or nautical units.
time (UTC)temp
F
wind
direction
speed
MPH
gust
MPH
rain 1hr
in
rain 24hr
in
rain mn
in
humidity
%
barometer
mb
20260504224541 70 0 0.0 5.0 0.00 0.00 0.00 40 1010.3
20260504223036 70 128 0.0 4.0 0.00 0.00 0.00 39 1010.2
20260504221533 70 200 0.0 4.0 0.00 0.00 0.00 39 1010.2
20260504220035 70 202 0.0 3.0 0.00 0.00 0.00 32 1010.3
20260504214536 71 0 1.0 5.0 0.00 0.00 0.00 39 1010.5
20260504213038 71 0 0.0 2.0 0.00 0.00 0.00 30 1010.4
20260504211535 71 0 0.0 5.0 0.00 0.00 0.00 28 1010.4
20260504210037 72 0 0.0 6.0 0.00 0.00 0.00 36 1010.5
20260504204531 72 0 0.0 5.0 0.00 0.00 0.00 37 1010.4
20260504203034 72 0 2.0 6.0 0.00 0.00 0.00 28 1010.3
20260504201537 72 0 1.0 3.0 0.00 0.00 0.00 32 1010.4
20260504200035 72 0 1.0 6.0 0.00 0.00 0.00 29 1010.3
20260504194534 72 0 0.0 5.0 0.00 0.00 0.00 38 1010.6
20260504193035 73 202 0.0 8.0 0.00 0.00 0.00 28 1010.8
20260504191535 73 317 0.0 6.0 0.00 0.00 0.00 28 1011.0
20260504190039 72 0 1.0 4.0 0.00 0.00 0.00 30 1011.1
20260504184535 72 0 0.0 4.0 0.00 0.00 0.00 27 1011.5
20260504183034 72 207 1.0 6.0 0.00 0.00 0.00 32 1011.8
20260504181535 72 0 1.0 5.0 0.00 0.00 0.00 27 1011.9
20260504180039 72 0 0.0 6.0 0.00 0.00 0.00 31 1012.2
20260504174537 72 193 1.0 5.0 0.00 0.00 0.00 30 1012.6
20260504173033 72 315 0.0 3.0 0.00 0.00 0.00 29 1012.7
20260504171544 71 0 0.0 7.0 0.00 0.00 0.00 28 1013.1
20260504081536 44 0 0.0 0.0 0.00 0.00 0.00 80 1015.5
20260504044536 46 0 0.0 0.0 0.00 0.00 0.00 67 1015.1
20260504043046 47 0 0.0 0.0 0.00 0.00 0.00 66 1014.9
20260504041536 47 0 0.0 0.0 0.00 0.00 0.00 64 1014.9
20260504040033 48 0 0.0 0.0 0.00 0.00 0.00 62 1014.8
20260504034531 48 0 0.0 0.0 0.00 0.00 0.00 61 1014.6
20260504033038 49 0 0.0 0.0 0.00 0.00 0.00 60 1014.4
20260504031535 49 0 0.0 0.0 0.00 0.00 0.00 53 1014.3
20260504030037 50 0 0.0 0.0 0.00 0.00 0.00 50 1014.5
20260504024536 50 0 0.0 0.0 0.00 0.00 0.00 54 1014.4
20260504023031 50 0 0.0 0.0 0.00 0.00 0.00 53 1014.5
20260504021535 50 0 0.0 0.0 0.00 0.00 0.00 46 1014.5
20260504020036 51 0 0.0 0.0 0.00 0.00 0.00 53 1014.3
20260504014539 51 0 0.0 0.0 0.00 0.00 0.00 47 1014.2
20260504013049 52 0 0.0 0.0 0.00 0.00 0.00 52 1014.2
20260504011536 52 0 0.0 0.0 0.00 0.00 0.00 51 1014.0
20260504010039 53 0 0.0 0.0 0.00 0.00 0.00 48 1013.9
20260504004537 54 0 0.0 0.0 0.00 0.00 0.00 39 1013.5
20260504003037 55 0 0.0 0.0 0.00 0.00 0.00 43 1013.4
20260504001539 55 0 0.0 0.0 0.00 0.00 0.00 41 1013.2
20260504000037 56 0 0.0 3.0 0.00 0.00 0.00 40 1013.2
20260503234532 57 26 0.0 2.0 0.00 0.00 0.00 38 1013.0
20260503233039 58 0 0.0 6.0 0.00 0.00 0.00 30 1013.0
20260503231537 58 334 0.0 8.0 0.00 0.00 0.00 28 1012.9
20260503230036 59 268 1.0 9.0 0.00 0.00 0.00 28 1012.7